Time,TemperatureF,DewpointF,PressureIn,WindDirection,WindDirectionDegrees,WindSpeedMPH,WindSpeedGustMPH,Humidity,HourlyPrecipIn,Conditions,Clouds,dailyrainin,SoftwareType,DateUTC
2013-02-18 00:01:00,26.0,17.0,-100.00,NW,311,24.0,32.0,68,0.00,,,-99.99,,2013-02-18 00:01:00,
2013-02-18 00:11:00,25.0,17.0,-100.00,NW,320,22.0,32.0,71,0.00,,,-99.99,,2013-02-18 00:11:00,
2013-02-18 00:22:00,24.0,17.0,-100.00,NW,319,22.0,31.0,72,0.00,,,-99.99,,2013-02-18 00:22:00,
2013-02-18 00:31:00,23.0,17.0,-100.00,NW,316,21.0,29.0,77,0.00,,,-99.99,,2013-02-18 00:31:00,
2013-02-18 00:52:00,21.0,17.0,-100.00,NW,325,20.0,27.0,87,0.00,,,-99.99,,2013-02-18 00:52:00,
2013-02-18 01:01:00,20.0,17.0,-100.00,NW,322,21.0,30.0,89,0.00,,,-99.99,,2013-02-18 01:01:00,
2013-02-18 01:11:00,20.0,17.0,-100.00,NW,322,23.0,30.0,87,0.00,,,-99.99,,2013-02-18 01:11:00,
2013-02-18 01:21:00,20.0,16.0,-100.00,NW,319,25.0,34.0,85,0.00,,,-99.99,,2013-02-18 01:21:00,
2013-02-18 01:31:00,19.0,15.0,-100.00,NW,319,22.0,32.0,82,0.00,,,-99.99,,2013-02-18 01:31:00,
2013-02-18 01:41:00,19.0,16.0,-100.00,NW,316,23.0,30.0,85,0.00,,,-99.99,,2013-02-18 01:41:00,
2013-02-18 01:51:00,19.0,16.0,-100.00,NW,313,24.0,31.0,87,0.00,,,-99.99,,2013-02-18 01:51:00,
2013-02-18 02:01:00,19.0,15.0,-100.00,NW,313,24.0,31.0,85,0.00,,,-99.99,,2013-02-18 02:01:00,
2013-02-18 02:11:00,19.0,15.0,-100.00,NW,313,24.0,33.0,83,0.01,,,-99.99,,2013-02-18 02:11:00,
2013-02-18 02:21:00,19.0,14.0,-100.00,NW,308,21.0,29.0,79,0.00,,,-99.99,,2013-02-18 02:21:00,
2013-02-18 02:32:00,19.0,13.0,-100.00,WNW,301,22.0,29.0,76,0.00,,,-99.99,,2013-02-18 02:32:00,
2013-02-18 02:41:00,19.0,12.0,-100.00,WNW,296,21.0,28.0,76,0.00,,,-99.99,,2013-02-18 02:41:00,
2013-02-18 02:52:00,19.0,11.0,-100.00,WNW,299,22.0,27.0,72,0.00,,,-99.99,,2013-02-18 02:52:00,
2013-02-18 03:01:00,18.0,12.0,-100.00,WNW,295,20.0,26.0,75,0.00,,,-99.99,,2013-02-18 03:01:00,
2013-02-18 03:11:00,18.0,12.0,-100.00,WNW,294,19.0,26.0,75,0.00,,,-99.99,,2013-02-18 03:11:00,
2013-02-18 03:21:00,18.0,11.0,-100.00,WNW,284,17.0,22.0,74,0.00,,,-99.99,,2013-02-18 03:21:00,
2013-02-18 03:31:00,18.0,12.0,-100.00,WNW,282,15.0,21.0,75,0.00,,,-99.99,,2013-02-18 03:31:00,
2013-02-18 03:42:00,18.0,11.0,-100.00,WNW,287,19.0,24.0,73,0.00,,,-99.99,,2013-02-18 03:42:00,
2013-02-18 03:51:00,18.0,11.0,-100.00,WNW,288,20.0,24.0,72,0.00,,,-99.99,,2013-02-18 03:51:00,
2013-02-18 04:01:00,18.0,11.0,-100.00,WNW,289,18.0,22.0,74,0.00,,,-99.99,,2013-02-18 04:01:00,
2013-02-18 04:11:00,18.0,10.0,-100.00,WNW,288,18.0,22.0,71,0.00,,,-99.99,,2013-02-18 04:11:00,
2013-02-18 04:21:00,18.0,10.0,-100.00,WNW,285,16.0,21.0,71,0.00,,,-99.99,,2013-02-18 04:21:00,
2013-02-18 04:32:00,18.0,10.0,-100.00,WNW,287,17.0,22.0,70,0.00,,,-99.99,,2013-02-18 04:32:00,
2013-02-18 04:41:00,18.0,11.0,-100.00,WNW,291,21.0,28.0,74,0.00,,,-99.99,,2013-02-18 04:41:00,
2013-02-18 04:51:00,17.0,11.0,-100.00,WNW,284,17.0,26.0,77,0.00,,,-99.99,,2013-02-18 04:51:00,
2013-02-18 05:01:00,17.0,11.0,-100.00,West,278,16.0,25.0,78,0.00,,,-99.99,,2013-02-18 05:01:00,
2013-02-18 05:11:00,17.0,11.0,-100.00,West,280,14.0,19.0,78,0.00,,,-99.99,,2013-02-18 05:11:00,
2013-02-18 05:21:00,17.0,11.0,-100.00,WNW,289,17.0,23.0,78,0.00,,,-99.99,,2013-02-18 05:21:00,
2013-02-18 05:31:00,16.0,12.0,-100.00,WNW,294,21.0,27.0,81,0.00,,,-99.99,,2013-02-18 05:31:00,
2013-02-18 05:41:00,16.0,13.0,-100.00,WNW,302,21.0,26.0,87,0.00,,,-99.99,,2013-02-18 05:41:00,
2013-02-18 05:52:00,15.0,13.0,-100.00,NW,305,19.0,24.0,91,0.01,,,-99.99,,2013-02-18 05:52:00,
2013-02-18 06:02:00,15.0,14.0,-100.00,NW,311,18.0,24.0,93,0.01,,,-99.99,,2013-02-18 06:02:00,
2013-02-18 06:11:00,15.0,14.0,-100.00,NW,311,19.0,25.0,94,0.01,,,-99.99,,2013-02-18 06:11:00,
2013-02-18 06:21:00,15.0,14.0,-100.00,NW,311,19.0,26.0,94,0.00,,,-99.99,,2013-02-18 06:21:00,
2013-02-18 06:32:00,15.0,13.0,-100.00,NW,312,17.0,24.0,94,0.00,,,-99.99,,2013-02-18 06:32:00,
2013-02-18 06:41:00,15.0,13.0,-100.00,NW,315,18.0,25.0,94,0.00,,,-99.99,,2013-02-18 06:41:00,
2013-02-18 06:51:00,15.0,13.0,-100.00,NW,315,16.0,23.0,94,0.01,,,-99.99,,2013-02-18 06:51:00,
2013-02-18 07:01:00,15.0,14.0,-100.00,NW,304,14.0,19.0,95,0.08,,,-99.99,,2013-02-18 07:01:00,
2013-02-18 07:11:00,15.0,13.0,-100.00,WNW,301,16.0,21.0,94,0.21,,,-99.99,,2013-02-18 07:11:00,
2013-02-18 07:21:00,15.0,13.0,-100.00,WNW,295,17.0,23.0,94,0.08,,,-99.99,,2013-02-18 07:21:00,
2013-02-18 07:32:00,15.0,13.0,-100.00,WNW,294,19.0,24.0,94,0.18,,,-99.99,,2013-02-18 07:32:00,
2013-02-18 07:42:00,14.0,13.0,-100.00,WNW,292,17.0,22.0,94,0.28,,,-99.99,,2013-02-18 07:42:00,
2013-02-18 07:51:00,15.0,13.0,-100.00,WNW,289,16.0,20.0,94,0.16,,,-99.99,,2013-02-18 07:51:00,
2013-02-18 08:01:00,15.0,13.0,-100.00,WNW,292,17.0,24.0,94,0.06,,,-99.99,,2013-02-18 08:01:00,
2013-02-18 08:11:00,15.0,13.0,-100.00,WNW,295,17.0,24.0,94,0.08,,,-99.99,,2013-02-18 08:11:00,
2013-02-18 08:21:00,15.0,13.0,-100.00,WNW,298,17.0,24.0,94,0.11,,,-99.99,,2013-02-18 08:21:00,
2013-02-18 08:32:00,15.0,13.0,-100.00,WNW,302,16.0,22.0,94,0.00,,,-99.99,,2013-02-18 08:32:00,
2013-02-18 08:42:00,14.0,13.0,-100.00,NW,309,16.0,23.0,94,0.00,,,-99.99,,2013-02-18 08:42:00,
2013-02-18 08:52:00,14.0,13.0,-100.00,NW,315,15.0,21.0,94,0.03,,,-99.99,,2013-02-18 08:52:00,
2013-02-18 09:02:00,14.0,12.0,-100.00,NW,315,14.0,19.0,94,0.06,,,-99.99,,2013-02-18 09:02:00,
2013-02-18 09:11:00,14.0,12.0,-100.00,NW,315,14.0,19.0,94,0.06,,,-99.99,,2013-02-18 09:11:00,
2013-02-18 09:22:00,14.0,13.0,-100.00,NW,319,12.0,19.0,94,0.06,,,-99.99,,2013-02-18 09:22:00,
2013-02-18 09:31:00,14.0,12.0,-100.00,NW,309,12.0,18.0,94,0.00,,,-99.99,,2013-02-18 09:31:00,
2013-02-18 09:41:00,14.0,12.0,-100.00,NW,306,12.0,17.0,94,0.00,,,-99.99,,2013-02-18 09:41:00,
2013-02-18 09:51:00,13.0,12.0,-100.00,NW,305,11.0,17.0,94,0.03,,,-99.99,,2013-02-18 09:51:00,
2013-02-18 10:01:00,13.0,12.0,-100.00,NW,304,13.0,18.0,94,0.11,,,-99.99,,2013-02-18 10:01:00,
2013-02-18 10:11:00,13.0,12.0,-100.00,NW,304,14.0,21.0,94,0.04,,,-99.99,,2013-02-18 10:11:00,
2013-02-18 10:21:00,13.0,11.0,-100.00,NW,305,14.0,20.0,93,0.04,,,-99.99,,2013-02-18 10:21:00,
2013-02-18 10:31:00,13.0,11.0,-100.00,NW,305,15.0,21.0,93,0.00,,,-99.99,,2013-02-18 10:31:00,
2013-02-18 10:42:00,13.0,11.0,-100.00,NW,311,17.0,23.0,94,0.00,,,-99.99,,2013-02-18 10:42:00,
2013-02-18 10:52:00,12.0,11.0,-100.00,NW,305,15.0,22.0,93,0.00,,,-99.99,,2013-02-18 10:52:00,
2013-02-18 11:01:00,12.0,11.0,-100.00,WNW,299,16.0,20.0,93,0.00,,,-99.99,,2013-02-18 11:01:00,
2013-02-18 11:11:00,12.0,11.0,-100.00,WNW,299,17.0,20.0,93,0.00,,,-99.99,,2013-02-18 11:11:00,
2013-02-18 11:22:00,12.0,11.0,-100.00,WNW,302,16.0,20.0,93,0.00,,,-99.99,,2013-02-18 11:22:00,
2013-02-18 11:32:00,12.0,11.0,-100.00,WNW,301,15.0,19.0,93,0.00,,,-99.99,,2013-02-18 11:32:00,
2013-02-18 11:42:00,12.0,11.0,-100.00,WNW,301,15.0,20.0,93,0.00,,,-99.99,,2013-02-18 11:42:00,
2013-02-18 11:52:00,12.0,10.0,-100.00,WNW,298,15.0,20.0,93,0.00,,,-99.99,,2013-02-18 11:52:00,
2013-02-18 12:02:00,12.0,10.0,-100.00,WNW,298,16.0,22.0,93,0.00,,,-99.99,,2013-02-18 12:02:00,
2013-02-18 12:11:00,12.0,10.0,-100.00,WNW,296,16.0,22.0,93,0.00,,,-99.99,,2013-02-18 12:11:00,
2013-02-18 12:22:00,12.0,10.0,-100.00,WNW,294,15.0,19.0,93,0.00,,,-99.99,,2013-02-18 12:22:00,
2013-02-18 12:32:00,11.0,10.0,-100.00,WNW,296,14.0,19.0,93,0.00,,,-99.99,,2013-02-18 12:32:00,
2013-02-18 12:42:00,11.0,10.0,-100.00,WNW,296,14.0,19.0,93,0.00,,,-99.99,,2013-02-18 12:42:00,
2013-02-18 12:52:00,11.0,9.0,-100.00,WNW,295,14.0,18.0,93,0.00,,,-99.99,,2013-02-18 12:52:00,
2013-02-18 13:02:00,11.0,9.0,-100.00,WNW,292,12.0,19.0,92,0.00,,,-99.99,,2013-02-18 13:02:00,
2013-02-18 13:12:00,10.0,9.0,-100.00,WNW,292,12.0,16.0,92,0.00,,,-99.99,,2013-02-18 13:12:00,
2013-02-18 13:22:00,10.0,8.0,-100.00,WNW,296,12.0,17.0,92,0.00,,,-99.99,,2013-02-18 13:22:00,
2013-02-18 13:32:00,10.0,8.0,-100.00,WNW,296,12.0,19.0,92,0.00,,,-99.99,,2013-02-18 13:32:00,
2013-02-18 13:42:00,9.0,8.0,-100.00,WNW,298,11.0,15.0,92,0.00,,,-99.99,,2013-02-18 13:42:00,
2013-02-18 14:02:00,10.0,8.0,-100.00,WNW,292,14.0,19.0,93,0.00,,,-99.99,,2013-02-18 14:02:00,
2013-02-18 14:22:00,11.0,9.0,-100.00,WNW,291,16.0,21.0,93,0.00,,,-99.99,,2013-02-18 14:22:00,
2013-02-18 14:32:00,11.0,9.0,-100.00,WNW,289,15.0,19.0,93,0.00,,,-99.99,,2013-02-18 14:32:00,
2013-02-18 14:41:00,11.0,9.0,-100.00,WNW,288,14.0,18.0,93,0.00,,,-99.99,,2013-02-18 14:41:00,
2013-02-18 14:53:00,11.0,9.0,-100.00,WNW,289,13.0,18.0,93,0.00,,,-99.99,,2013-02-18 14:53:00,
2013-02-18 15:02:00,11.0,9.0,-100.00,WNW,288,14.0,18.0,93,0.00,,,-99.99,,2013-02-18 15:02:00,
2013-02-18 15:11:00,11.0,9.0,-100.00,WNW,287,13.0,17.0,93,0.00,,,-99.99,,2013-02-18 15:11:00,
2013-02-18 15:22:00,11.0,9.0,-100.00,WNW,288,12.0,18.0,92,0.00,,,-99.99,,2013-02-18 15:22:00,
2013-02-18 15:32:00,11.0,9.0,-100.00,WNW,292,12.0,17.0,93,0.00,,,-99.99,,2013-02-18 15:32:00,
2013-02-18 15:42:00,11.0,9.0,-100.00,WNW,292,12.0,17.0,92,0.00,,,-99.99,,2013-02-18 15:42:00,
2013-02-18 15:52:00,11.0,9.0,-100.00,WNW,291,10.0,16.0,93,0.00,,,-99.99,,2013-02-18 15:52:00,
2013-02-18 16:02:00,11.0,9.0,-100.00,WNW,288,10.0,17.0,92,0.00,,,-99.99,,2013-02-18 16:02:00,
2013-02-18 16:12:00,11.0,9.0,-100.00,WNW,282,9.0,14.0,92,0.00,,,-99.99,,2013-02-18 16:12:00,
2013-02-18 16:22:00,11.0,9.0,-100.00,West,268,8.0,11.0,93,0.00,,,-99.99,,2013-02-18 16:22:00,
2013-02-18 16:32:00,11.0,9.0,-100.00,WSW,253,6.0,9.0,92,0.00,,,-99.99,,2013-02-18 16:32:00,
2013-02-18 16:42:00,12.0,10.0,-100.00,WSW,241,6.0,8.0,93,0.00,,,-99.99,,2013-02-18 16:42:00,
2013-02-18 16:52:00,11.0,9.0,-100.00,SW,229,9.0,14.0,92,0.00,,,-99.99,,2013-02-18 16:52:00,
2013-02-18 17:03:00,11.0,9.0,-100.00,WSW,237,10.0,14.0,91,0.00,,,-99.99,,2013-02-18 17:03:00,
2013-02-18 17:12:00,12.0,10.0,-100.00,WSW,243,10.0,15.0,92,0.00,,,-99.99,,2013-02-18 17:12:00,
2013-02-18 17:22:00,13.0,11.0,-100.00,WSW,250,9.0,12.0,93,0.00,,,-99.99,,2013-02-18 17:22:00,
2013-02-18 17:32:00,13.0,11.0,-100.00,WSW,258,10.0,16.0,92,0.00,,,-99.99,,2013-02-18 17:32:00,
2013-02-18 17:42:00,13.0,11.0,-100.00,WSW,237,15.0,22.0,90,0.00,,,-99.99,,2013-02-18 17:42:00,
2013-02-18 17:52:00,13.0,10.0,-100.00,WSW,250,17.0,26.0,86,0.00,,,-99.99,,2013-02-18 17:52:00,
2013-02-18 18:02:00,14.0,9.0,-100.00,West,260,19.0,26.0,82,0.00,,,-99.99,,2013-02-18 18:02:00,
2013-02-18 18:12:00,14.0,8.0,-100.00,West,264,19.0,26.0,80,0.00,,,-99.99,,2013-02-18 18:12:00,
2013-02-18 18:22:00,14.0,8.0,-100.00,West,267,26.0,33.0,75,0.00,,,-99.99,,2013-02-18 18:22:00,
2013-02-18 18:32:00,14.0,6.0,-100.00,West,264,24.0,37.0,70,0.00,,,-99.99,,2013-02-18 18:32:00,
2013-02-18 18:42:00,14.0,5.0,-100.00,West,270,26.0,35.0,68,0.00,,,-99.99,,2013-02-18 18:42:00,
2013-02-18 19:02:00,14.0,6.0,-100.00,WNW,288,22.0,30.0,69,0.00,,,-99.99,,2013-02-18 19:02:00,
2013-02-18 19:12:00,15.0,5.0,-100.00,WNW,287,21.0,30.0,66,0.00,,,-99.99,,2013-02-18 19:12:00,
2013-02-18 19:22:00,15.0,6.0,-100.00,West,271,23.0,35.0,65,0.00,,,-99.99,,2013-02-18 19:22:00,
2013-02-18 19:33:00,16.0,5.0,-100.00,West,277,23.0,37.0,63,0.00,,,-99.99,,2013-02-18 19:33:00,
2013-02-18 19:42:00,15.0,3.0,-100.00,West,280,24.0,42.0,58,0.00,,,-99.99,,2013-02-18 19:42:00,
2013-02-18 19:52:00,16.0,5.0,-100.00,West,274,24.0,37.0,61,0.00,,,-99.99,,2013-02-18 19:52:00,
2013-02-18 20:02:00,16.0,4.0,-100.00,West,274,22.0,30.0,58,0.00,,,-99.99,,2013-02-18 20:02:00,
2013-02-18 20:12:00,16.0,5.0,-100.00,West,277,22.0,31.0,60,0.00,,,-99.99,,2013-02-18 20:12:00,
2013-02-18 20:22:00,16.0,6.0,-100.00,West,275,22.0,32.0,63,0.00,,,-99.99,,2013-02-18 20:22:00,
2013-02-18 20:33:00,16.0,6.0,-100.00,West,270,27.0,35.0,63,0.00,,,-99.99,,2013-02-18 20:33:00,
2013-02-18 20:42:00,17.0,4.0,-100.00,West,270,27.0,37.0,59,0.00,,,-99.99,,2013-02-18 20:42:00,
2013-02-18 20:52:00,16.0,2.0,-100.00,West,271,29.0,38.0,53,0.00,,,-99.99,,2013-02-18 20:52:00,
2013-02-18 21:02:00,17.0,3.0,-100.00,WNW,289,28.0,38.0,54,0.00,,,-99.99,,2013-02-18 21:02:00,
2013-02-18 21:12:00,17.0,1.0,-100.00,WNW,289,27.0,37.0,50,0.00,,,-99.99,,2013-02-18 21:12:00,
2013-02-18 21:22:00,16.0,3.0,-100.00,WNW,295,30.0,37.0,55,0.00,,,-99.99,,2013-02-18 21:22:00,
2013-02-18 21:32:00,16.0,1.0,-100.00,WNW,284,25.0,38.0,52,0.00,,,-99.99,,2013-02-18 21:32:00,
2013-02-18 21:42:00,15.0,2.0,-100.00,WNW,285,24.0,35.0,58,0.00,,,-99.99,,2013-02-18 21:42:00,
2013-02-18 21:52:00,14.0,3.0,-100.00,WNW,291,26.0,37.0,60,0.00,,,-99.99,,2013-02-18 21:52:00,
2013-02-18 22:02:00,15.0,3.0,-100.00,WNW,295,25.0,32.0,60,0.00,,,-99.99,,2013-02-18 22:02:00,
2013-02-18 22:12:00,14.0,6.0,-100.00,WNW,295,26.0,37.0,71,0.00,,,-99.99,,2013-02-18 22:12:00,
2013-02-18 22:22:00,15.0,7.0,-100.00,WNW,294,26.0,34.0,70,0.00,,,-99.99,,2013-02-18 22:22:00,
2013-02-18 22:33:00,15.0,8.0,-100.00,WNW,299,22.0,29.0,72,0.00,,,-99.99,,2013-02-18 22:33:00,
2013-02-18 22:42:00,15.0,7.0,-100.00,WNW,296,23.0,29.0,72,0.00,,,-99.99,,2013-02-18 22:42:00,
2013-02-18 22:52:00,15.0,8.0,-100.00,WNW,295,23.0,31.0,73,0.00,,,-99.99,,2013-02-18 22:52:00,
2013-02-18 23:02:00,15.0,7.0,-100.00,WNW,295,21.0,29.0,69,0.00,,,-99.99,,2013-02-18 23:02:00,
2013-02-18 23:12:00,15.0,6.0,-100.00,WNW,295,22.0,29.0,66,0.00,,,-99.99,,2013-02-18 23:12:00,
2013-02-18 23:22:00,16.0,6.0,-100.00,WNW,292,22.0,30.0,64,0.00,,,-99.99,,2013-02-18 23:22:00,
2013-02-18 23:32:00,15.0,8.0,-100.00,WNW,295,21.0,26.0,72,0.00,,,-99.99,,2013-02-18 23:32:00,
2013-02-18 23:42:00,14.0,9.0,-100.00,WNW,298,19.0,24.0,79,0.00,,,-99.99,,2013-02-18 23:42:00,
2013-02-18 23:52:00,13.0,10.0,-100.00,WNW,301,19.0,26.0,86,0.00,,,-99.99,,2013-02-18 23:52:00,